Regional Weather Roundup
Issued by NWS

Home | Current Version | Previous Version | Graphics & Text | Print | Product List | Glossary On
Versions: 1 2 3 4 5 6 7 8 9 10 11 12 13 14 15 16 17 18 19 20 21 22 23 24 25 26 27 28 29 30 31 32 33 34 35 36 37 38 39 40 41 42 43 44 45 46 47 48 49 50
000
ASUS43 KMPX 191901
RWRMN
WEATHER ROUNDUP FOR MINNESOTA
NATIONAL WEATHER SERVICE TWIN CITIES/CHANHASSEN MN
200 PM CDT SUN OCT 19 2014


NOTE: "FAIR" INDICATES FEW OR NO CLOUDS BELOW 12,000 FEET WITH NO
SIGNIFICANT WEATHER AND/OR OBSTRUCTIONS TO VISIBILITY. N/A MEANS
CURRENT SKY AND/OR WEATHER CONDITIONS ARE NOT AVAILABLE.

MNZ060>063-068>070-192000-
   Twin Cities Metro

CITY           SKY/WX    TMP DP  RH WIND       PRES   REMARKS
TWIN CITIES    MOSUNNY   63  43  48 SW14      29.82F
ST PAUL        MOSUNNY   61  44  53 SW13      29.83F
CRYSTAL        MOSUNNY   64  44  48 SW14      29.81F
BLAINE         MOSUNNY   64  45  48 SW12G17   29.81F
LAKEVILLE      SUNNY     63  45  51 W9G16     29.83F
EDEN PRAIRIE   SUNNY     65  44  46 SW13G21   29.81F
SOUTH ST PAUL  MOSUNNY   63  44  49 SW8       29.83F
LAKE ELMO      FAIR      61  45  55 SW8       29.84S
$$
MNZ001>005-007-008-013>017-022>024-027-028-192000-
   Northwest Minnesota

CITY           SKY/WX    TMP DP  RH WIND       PRES   REMARKS
BEMIDJI        SUNNY     62  43  50 W16       29.75S
HALLOCK        SUNNY     61  45  55 NW20      29.79S
ROSEAU         SUNNY     63  45  51 NW16      29.75R
WARROAD        SUNNY     59  46  63 NW15      29.74R
THIEF RVR FALL SUNNY     59  45  58 NW20      29.78F
CROOKSTON      SUNNY     63  45  51 NW17G25   29.80F
FOSSTON        SUNNY     61  43  51 W12       29.79S
DETROIT LAKES  SUNNY     61  43  51 NW18G25   29.81S
MOORHEAD       SUNNY     68  39  34 NW15G23   29.81F
PARK RAPIDS    SUNNY     64  42  44 W16       29.76S
MAHNOMEN       FAIR      60  44  55 W15       29.80S
$$
MNZ006-009>011-018-025>026-192000-
   North Central Minnesota

CITY           SKY/WX    TMP DP  RH WIND       PRES   REMARKS
BAUDETTE       SUNNY     59  43  55 NW8G20    29.72F
FLAG ISLAND    SUNNY     54  43  66 NW14      29.72R
INTL FALLS     SUNNY     58  42  55 W8        29.70F
WASKISH        SUNNY     55  45  67 SW8G16    29.73F
BIG FORK       SUNNY     63  43  48 W8        29.72S
LONGVILLE      SUNNY     63  43  48 W6        29.74S
GRAND RAPIDS   SUNNY     59  43  55 W7        29.72F
CRANE LAKE     SUNNY     55  41  58 SW6       29.71F
ORR            SUNNY     59  39  47 W7        29.68S
COOK           SUNNY     57  43  58 SW10      29.71S
WALKER         FAIR      63  42  46 W14G21    29.74S
$$
MNZ012-019>021-037-192000-
   Northeast Minnesota

CITY           SKY/WX    TMP DP  RH WIND       PRES   REMARKS
DULUTH         SUNNY     58  42  55 SW14      29.73F
ELY            SUNNY     55  39  54 W8        29.70F
HIBBING        SUNNY     60  41  49 VRB7      29.71F
EVELETH        SUNNY     57  43  58 SW9       29.72F
DULUTH HARBOR  SUNNY     59  45  58 SW10      29.74F
TWO HARBORS    MOSUNNY   61  34  36 SW9G17    29.70F
SILVER BAY     MOSUNNY   55  43  62 S8        29.70F
GRAND MARAIS     N/A     48  41  76 CALM      29.73F
G MARAIS ARPRT CLOUDY    43  37  81 S5        29.72F
$$
MNZ029>031-032-039>041-046>048-054>057-064-192000-
   West Central Minnesota

CITY           SKY/WX    TMP DP  RH WIND       PRES   REMARKS
FERGUS FALLS   SUNNY     66  41  39 NW18G24   29.81F
WHEATON        SUNNY     66  43  42 W18       29.84F
MORRIS         SUNNY     70  45  40 NW16G23   29.81F
ALEXANDRIA     SUNNY     65  44  46 W14       29.82S
ELBOW LAKE     FAIR      64  44  47 W13G18    29.82S
WADENA         SUNNY     63  45  51 W12G20    29.78S
GLENWOOD       SUNNY     66  45  45 W14G21    29.81F
APPLETON       SUNNY     72  41  33 NW14      29.82F
BENSON         SUNNY     70  45  40 N13G18    29.82F
ORTONVILLE     SUNNY     70  41  35 NW14      29.83F
MADISON        SUNNY     73  43  33 N16       29.83F
WILLMAR        FAIR      68  41  37 W10       29.83F
$$
MNZ033>034-036-042>043-049>051-058-059-192000-
   Central Minnesota

CITY           SKY/WX    TMP DP  RH WIND       PRES   REMARKS
ST CLOUD       SUNNY     67  44  43 W10G17    29.79F
SAUK CENTRE    FAIR      65  44  47 W16       29.80F
PAYNESVILLE    SUNNY     63  43  48 SW10G20   29.81F
AITKIN         SUNNY     64  45  48 SW12      29.74F
PINE RIVER     SUNNY     63  46  55 W8        29.78F
BRAINERD       SUNNY     62  43  49 W13       29.76F
STAPLES        SUNNY     64  43  45 W14       29.77F
LONG PRAIRIE   FAIR      63  43  48 SW13      29.80S
LITTLE FALLS   SUNNY     63  41  45 W10       29.78F
LITCHFIELD     SUNNY     66  43  42 W10       29.82F
BUFFALO        MOSUNNY   64  43  47 SW8       29.82F
MAPLE LAKE     SUNNY     66  46  49 SW9       29.82S
$$
MNZ037-044-045-052-053-192000-
   East Central Minnesota

CITY           SKY/WX    TMP DP  RH WIND       PRES   REMARKS
PRINCETON      MOSUNNY   64  45  48 S6        29.80S
MORA           SUNNY     57  41  54 SW8       29.80F
CAMBRIDGE      MOSUNNY   63  46  55 SW8       29.78F
RUSH CITY      MOSUNNY   60  44  54 SW7       29.80F
MOOSE LAKE     SUNNY     61  41  48 SW12G18   29.73F
HINCKLEY       FAIR      59  45  58 SW12G17   29.78F
CLOQUET        SUNNY     59  41  51 SW12      29.73F
MCGREGOR       SUNNY     59  43  55 SW7G17    29.75F
$$
MNZ071>073-080-081-089-090-097-098-192000-
   Southwest Minnesota

CITY           SKY/WX    TMP DP  RH WIND       PRES   REMARKS
MONTEVIDEO     SUNNY     73  45  35 N13       29.84S
GRANITE FALLS  SUNNY     72  43  36 W14       29.85S
CANBY          SUNNY     73  42  33 NW20G26   29.85F
MARSHALL       SUNNY     72  43  35 NW14      29.84S
REDWOOD FALLS  SUNNY     71  43  36 W14       29.83F
OLIVIA         SUNNY     70  45  40 W12       29.82F
PIPESTONE      SUNNY     70  45  40 W12       29.88F
WINDOM         SUNNY     68  45  42 SW13      29.86F
WORTHINGTON    SUNNY     66  45  45 SW13G20   29.89F
JACKSON        SUNNY     68  41  37 W13       29.88F
TRACY          SUNNY     72  44  36 W10G18    29.85F
SLAYTON        SUNNY     67  43  41 SW14G21   29.88F
$$
MNZ065>067-074>077-082>085-091>093-192000-
   South Central Minnesota

CITY           SKY/WX    TMP DP  RH WIND       PRES   REMARKS
MANKATO        SUNNY     66  43  42 SW16G23   29.85F
NEW ULM        SUNNY     66  45  45 W13       29.84F
ST JAMES       SUNNY     68  43  40 SW16      29.86F
FAIRMONT       SUNNY     66  28  24 W17       29.87F
GLENCOE        SUNNY     67  46  46 SW10      29.82F
FARIBAULT      SUNNY     64  45  48 SW12G18   29.84F
OWATONNA       SUNNY     64  43  45 SW14G24   29.85F
WASECA         SUNNY     63  37  39 SW15G21   29.86F
ALBERT LEA     SUNNY     64  45  48 SW15G26   29.86F
$$
MNZ078>079-086>088-094>096-192000-
   Southeast Minnesota

CITY           SKY/WX    TMP DP  RH WIND       PRES   REMARKS
ROCHESTER      MOSUNNY   62  44  51 SW20G30   29.88F
RED WING       MOSUNNY   64  43  45 SW12G18   29.82F
STANTON        MOSUNNY   63  44  49 SW16G23   29.82F
DODGE CENTER   SUNNY     63  46  55 SW25G31   29.86F
WINONA         PTSUNNY   61  43  51 SW15      29.88F
AUSTIN         SUNNY     63  45  51 SW18      29.88F
PRESTON        PTSUNNY   58  44  59 SW17G23   29.90F
$$
ABBREVIATIONS USED IN REMARKS
   TC - TEMPERATURES IN CELSIUS
  WCI - WIND CHILL INDEX
   HX - HEAT INDEX
  VSB - VISIBILITY
$$


USA.gov is the U.S. government's official web portal to all federal, state and local government web resources and services.